Location: Unspecified
(0.0000°N, 0.0000°E)
Time: 17:47:15
(UTC+00:00)

STARLINK 1067 - Pass Details

Date: 16 January 2020
Orbit: 548 x 551 km, 53.0° (Epoch: 17 January)

Event Time Altitude Azimuth Distance (km) Brightness Sun altitude
Rises 19:25:14 0° 309° (NW) 2,701 7.6 -17.6°
Reaches altitude 10° 19:27:39 10° 298° (WNW) 1,812 6.8 -18.2°
Maximum altitude 19:31:16 30° 236° (SW) 996 5.6 -19.0°
Drops below altitude 10° 19:34:56 10° 174° (S) 1,819 6.4 -19.8°
Sets 19:37:22 0° 163° (SSE) 2,715 7.2 -20.4°
